Regional Weather Roundup
Issued by NWS

Home | Current Version | Previous Version | Graphics & Text | Print | Product List | Glossary On
Versions: 1 2 3 4 5 6 7 8 9 10 11 12 13 14 15 16 17 18 19 20 21 22 23 24 25 26 27 28 29 30 31 32 33 34 35 36 37 38 39 40 41 42 43 44 45 46 47 48 49 50
000
ASUS43 KBIS 160559
RWRND

NORTH DAKOTA REGIONAL WEATHER ROUNDUP
NATIONAL WEATHER SERVICE BISMARCK ND
100 AM CDT WED APR 16 2014

NOTE: "FAIR" INDICATES FEW OR NO CLOUDS BELOW 12,000 FEET WITH NO
SIGNIFICANT WEATHER AND/OR OBSTRUCTIONS TO VISIBILITY.


NDZ001>003-009>011-017-160700-
NORTHWEST NORTH DAKOTA

CITY           SKY/WX    TMP DP  RH WIND       PRES   REMARKS
WILLISTON        N/A    N/A N/A N/A MISG      29.78R
MINOT          LGT SNOW  25  21  85 E20G25    29.86R FOG     WCI  11
MINOT AFB      LGT SNOW  25  25 100 E18       29.87R FOG     WCI  11
$$

NDZ018>021-031>035-040>046-160700-
SOUTHWEST NORTH DAKOTA

CITY           SKY/WX    TMP DP  RH WIND       PRES   REMARKS
BISMARCK       MOCLDY    29  18  63 E18G29    29.77S WCI  16
6HR MIN TEMP:  29; 6HR MAX TEMP:  45;

DICKINSON      CLOUDY    29  18  63 E18       29.68R WCI  16
GARRISON         N/A     28  21  75 E18G28    29.80R WCI  15
6HR MIN TEMP:  28; 6HR MAX TEMP:  38;

HETTINGER ARPT CLOUDY    35  22  58 E7        29.64S
$$

NDZ004>008-012>016-024-026-027-054-160700-
NORTHEAST NORTH DAKOTA

CITY           SKY/WX    TMP DP  RH WIND       PRES   REMARKS
GRAND FORKS    CLOUDY    30  11  45 E15       29.97S WCI  19
DEVILS LAKE    CLOUDY    25  16  68 E17G24    29.94S WCI  11
$$

NDZ022-023-025-028>030-036>039-047>053-160700-
SOUTHEAST NORTH DAKOTA

CITY           SKY/WX    TMP DP  RH WIND       PRES   REMARKS
FARGO          CLOUDY    32  18  56 E14       29.97R
6HR MIN TEMP:  32; 6HR MAX TEMP:  34;

$$




USA.gov is the U.S. government's official web portal to all federal, state and local government web resources and services.